Regional Weather Roundup
Issued by NWS

Home | Current Version | Previous Version | Graphics & Text | Print | Product List | Glossary On
Versions: 1 2 3 4 5 6 7 8 9 10 11 12 13 14 15 16 17 18 19 20 21 22 23 24 25 26 27 28 29 30 31 32 33 34 35 36 37 38 39 40 41 42 43 44 45 46 47 48 49 50
000
ASUS45 KPSR 271700
RWRAZ

PRELIMINARY ARIZONA REGIONAL HOURLY WEATHER ROUNDUP
NATIONAL WEATHER SERVICE PHOENIX AZ
1000 AM MST TUE JAN 27 2015

NOTE: FAIR INDICATES FEW OR NO CLOUDS BELOW 12,000 FEET WITH NO
SIGNIFICANT WEATHER AND/OR OBSTRUCTIONS TO VISIBILITY.

AZZ001>003-036-271800-
NORTHWEST ARIZONA

CITY           SKY/WX    TMP DP  RH WIND       PRES   REMARKS
KINGMAN        PTSUNNY   53  47  79 SE7       30.29R
$$

AZZ004>008-015-016-018-271800-
NORTH CENTRAL ARIZONA

CITY           SKY/WX    TMP DP  RH WIND       PRES   REMARKS
GRAND CANYON   LGT RAIN  42  40  92 S7        30.35S
PRESCOTT       MOSUNNY   50  41  71 VRB6      30.32S
FLAGSTAFF      NOT AVBL
PAYSON         PTSUNNY   52  34  50 CALM      30.36S
$$

AZZ009>014-017-271800-
NORTHEAST ARIZONA

CITY           SKY/WX    TMP DP  RH WIND       PRES   REMARKS
WINSLOW        NOT AVBL
SAINT JOHNS    SUNNY     48  37  65 CALM      30.36S
WINDOW ROCK    MOSUNNY   43  30  60 CALM      30.40R
SHOW LOW       CLOUDY    46  36  66 SE7       30.39F
$$

AZZ023-271800-
GREATER PHOENIX AREA

CITY           SKY/WX    TMP DP  RH WIND       PRES   REMARKS
PHOENIX        PTSUNNY   59  51  75 SE6       30.24R
GLENDALE       MOSUNNY   59  55  88 CALM      30.26S
DEER VALLEY    MOSUNNY   60  50  69 E3        30.23F
SCOTTSDALE     HVY RAIN  56  51  84 SE3       30.27R
MESA-GATEWAY   CLOUDY    55  52  88 E6        30.27S
$$

AZZ027-028-271800-
SOUTHWEST MARICOPA COUNTY AND PINAL COUNTY

CITY           SKY/WX    TMP DP  RH WIND       PRES   REMARKS
CASA GRANDE    MOSUNNY   55  50  82 CALM      30.25S
GILA BEND      PTSUNNY   57  51  79 NE2       30.24R
$$

AZZ503-504-507>509-271800-
SOUTHEAST ARIZONA

CITY           SKY/WX    TMP DP  RH WIND       PRES   REMARKS
TUCSON         SUNNY     61  50  67 S3        30.27S
DAVIS-MONTHAN  SUNNY     62  40  43 SE6       30.25S
RYAN FIELD       N/A     59  52  77 E8        30.26F
NOGALES        SUNNY     58  49  72 CALM      30.28F
SIERRA VISTA   PTSUNNY   57  36  44 E7        30.31S
SAFFORD        SUNNY     59  36  42 SE10      30.30F
$$

AZZ020-021-025-026-031-271800-
SOUTHWEST ARIZONA

CITY           SKY/WX    TMP DP  RH WIND       PRES   REMARKS
YUMA           NOT AVBL
$$

CAZ031-033-041-043-047-048-061-271800-
SOUTHERN CALIFORNIA

CITY           SKY/WX    TMP DP  RH WIND       PRES   REMARKS
DOWNTOWN L.A.  SUNNY     63  53  70 N5        30.19S
L.A. AIRPORT   MOSUNNY   63  55  75 NE5       30.20S
SAN DIEGO      MOSUNNY   63  50  62 CALM      30.19S
BURBANK        CLOUDY    59  54  83 CALM      30.20S
ONTARIO        PTSUNNY   61  53  75 E3        30.21R
RIVERSIDE      PTSUNNY   59  53  80 CALM      30.21S
PALM SPRINGS   PTSUNNY   60  54  80 CALM      30.26S
EL CENTRO NAS  PTSUNNY   59  55  87 CALM      30.24S
IMPERIAL       CLOUDY    57  56  96 W3        30.24R
BLYTHE         SUNNY     58  54  86 CALM      30.25R
NEEDLES        CLOUDY    57  54  88 CALM      30.27S
$$

NVZ020-UTZ003-271800-
SOUTHERN NEVADA-UTAH

CITY           SKY/WX    TMP DP  RH WIND       PRES   REMARKS
LAS VEGAS      NOT AVBL
SALT LAKE CITY CLOUDY    38  33  82 SW5       30.23R WCI  34
$$

NMZ009-TXZ055-271800-
NEW MEXICO-WEST TEXAS

CITY           SKY/WX    TMP DP  RH WIND       PRES   REMARKS
ALBUQUERQUE    MOSUNNY   42  28  57 CALM      30.38S
EL PASO        MOSUNNY   54  31  41 CALM      30.35R
$$


........................KEY........................
SKY/WX - SKY CONDITION/WEATHER
TMP    - TEMPERATURE IN FAHRENHEIT
DP     - DEW POINT IN FAHRENHEIT
RH     - RELATIVE HUMIDITY IN PERCENT
WIND   - DIRECTION AND SPEED IN MILES PER HOUR (MPH)
VRB    - VARIABLE WIND DIRECTION
PRES   - MEAN SEA LEVEL PRESSURE IN INCHES OF MERCURY
         F - FALLING PRESSURE   R - RISING PRESSURE
         S - STEADY PRESSURE
VSB    - VISIBILITY IN MILES
HX     - HEAT INDEX IN FAHRENHEIT
WCI    - WIND CHILL INDEX IN FAHRENHEIT
TC     - TEMPERATURE IN CELSIUS WHICH IS ALSO KNOWN AS
         TEMPERATURE IN CENTIGRADE
AFB    - AIR FORCE BASE
         LUKE AFB IS LUKE AIR FORCE BASE
         DAVIS-MONTHAN IS DAVIS-MONTHAN AIR FORCE BASE
NAS    - NAVAL AIR STATION
         EL CENTRO NAS IS EL CENTRO NAVAL AIR STATION
N/A    - NOT AVAILABLE


USA.gov is the U.S. government's official web portal to all federal, state and local government web resources and services.